NOVO250 RJGG-RJTT

Flight info

Callsign NOVO250
Flight time 0h 56m
Altitude 9000
Route RJGG DCT ENSYU Y23 ARTIC Y71 XAC DCT RJTT
Aircraft TBM9/L-SB3/A

Departure

Time 2026-05-08 00:58
Airport Chubu Centrair International Airport (RJGG)

Arrival

Time 2026-05-08 01:54
Airport Tokyo Haneda International Airport (RJTT)
Time Latitude Longitude Altitude Speed Heading
2026-05-08 00:56 34.87356 136.80172 15 ft 0 kts 169°
2026-05-08 00:57 34.87322 136.80181 15 ft 26 kts 165°
2026-05-08 00:57 34.86910 136.80281 16 ft 92 kts 169°
2026-05-08 00:57 34.86217 136.80443 427 ft 96 kts 172°
2026-05-08 00:58 34.85610 136.80526 896 ft 93 kts 179°
2026-05-08 00:58 34.84997 136.80585 1383 ft 81 kts 175°
2026-05-08 00:58 34.84334 136.80677 1456 ft 122 kts 173°
2026-05-08 00:58 34.83513 136.80847 1998 ft 119 kts 171°
2026-05-08 00:59 34.82740 136.81298 2298 ft 146 kts 131°
2026-05-08 00:59 34.82407 136.82459 2914 ft 143 kts 105°
2026-05-08 00:59 34.82142 136.83683 3294 ft 155 kts 109°
2026-05-08 00:59 34.81847 136.84945 3772 ft 155 kts 108°
2026-05-08 01:00 34.81564 136.86206 4297 ft 155 kts 109°
2026-05-08 01:00 34.81275 136.87490 4767 ft 159 kts 109°
2026-05-08 01:00 34.80976 136.88802 5221 ft 162 kts 110°
2026-05-08 01:00 34.80968 136.88836 5234 ft 162 kts 110°
2026-05-08 01:01 34.80696 136.90032 5660 ft 165 kts 110°
2026-05-08 01:01 34.80386 136.91395 6151 ft 169 kts 110°
2026-05-08 01:01 34.80075 136.92766 6617 ft 171 kts 111°
2026-05-08 01:01 34.79757 136.94165 7095 ft 172 kts 112°
2026-05-08 01:02 34.79436 136.95575 7567 ft 174 kts 112°
2026-05-08 01:02 34.79113 136.97003 8049 ft 176 kts 113°
2026-05-08 01:02 34.78819 136.98279 8479 ft 177 kts 114°
2026-05-08 01:02 34.78701 136.98794 8651 ft 178 kts 114°
2026-05-08 01:03 34.78360 137.00277 8973 ft 193 kts 114°
2026-05-08 01:03 34.77964 137.01968 8989 ft 221 kts 113°
2026-05-08 01:03 34.77534 137.03862 8988 ft 242 kts 112°
2026-05-08 01:03 34.77081 137.05874 8989 ft 256 kts 111°
2026-05-08 01:04 34.76598 137.08000 8987 ft 264 kts 111°
2026-05-08 01:04 34.76099 137.10181 8987 ft 269 kts 111°
2026-05-08 01:04 34.75594 137.12390 8987 ft 272 kts 111°
2026-05-08 01:04 34.75083 137.14614 8976 ft 274 kts 111°
2026-05-08 01:05 34.74568 137.16859 8976 ft 276 kts 111°
2026-05-08 01:05 34.74051 137.19109 8978 ft 277 kts 111°
2026-05-08 01:05 34.73538 137.21342 8980 ft 277 kts 111°
2026-05-08 01:05 34.73018 137.23606 8983 ft 280 kts 111°
2026-05-08 01:06 34.72494 137.25895 8982 ft 283 kts 112°
2026-05-08 01:06 34.71984 137.28208 8976 ft 282 kts 111°
2026-05-08 01:06 34.71423 137.30480 8973 ft 280 kts 113°
2026-05-08 01:06 34.70877 137.32751 8970 ft 279 kts 111°
2026-05-08 01:07 34.70376 137.35033 8968 ft 279 kts 110°
2026-05-08 01:07 34.69860 137.37302 8970 ft 278 kts 112°
2026-05-08 01:07 34.69321 137.39563 8975 ft 278 kts 112°
2026-05-08 01:07 34.68795 137.41830 8972 ft 278 kts 111°
2026-05-08 01:08 34.68274 137.44102 8976 ft 279 kts 111°
2026-05-08 01:08 34.67755 137.46340 8979 ft 279 kts 111°
2026-05-08 01:08 34.67226 137.48605 8976 ft 279 kts 111°
2026-05-08 01:08 34.66697 137.50875 8976 ft 279 kts 111°
2026-05-08 01:09 34.66169 137.53143 8981 ft 279 kts 111°
2026-05-08 01:09 34.65640 137.55412 8979 ft 279 kts 111°
2026-05-08 01:09 34.65111 137.57678 8979 ft 279 kts 111°
2026-05-08 01:09 34.64581 137.59941 8978 ft 279 kts 111°
2026-05-08 01:10 34.64049 137.62213 8978 ft 280 kts 111°
2026-05-08 01:10 34.63526 137.64454 8981 ft 280 kts 111°
2026-05-08 01:10 34.62993 137.66725 8981 ft 280 kts 111°
2026-05-08 01:10 34.62460 137.68998 8980 ft 280 kts 111°
2026-05-08 01:11 34.61927 137.71267 8975 ft 279 kts 111°
2026-05-08 01:11 34.61396 137.73535 8978 ft 279 kts 111°
2026-05-08 01:11 34.60908 137.75606 8979 ft 279 kts 111°
2026-05-08 01:12 34.60388 137.77812 8979 ft 279 kts 111°
2026-05-08 01:12 34.60237 137.78454 8982 ft 279 kts 111°
2026-05-08 01:12 34.59727 137.80616 8978 ft 279 kts 111°
2026-05-08 01:12 34.59371 137.82125 8982 ft 279 kts 111°
2026-05-08 01:13 34.59356 137.82187 8978 ft 279 kts 111°
2026-05-08 01:13 34.58821 137.84457 8980 ft 280 kts 111°
2026-05-08 01:13 34.58284 137.86729 8981 ft 280 kts 111°
2026-05-08 01:14 34.57751 137.88977 8984 ft 281 kts 111°
2026-05-08 01:14 34.57212 137.91261 8985 ft 281 kts 111°
2026-05-08 01:14 34.56670 137.93547 8986 ft 281 kts 111°
2026-05-08 01:14 34.56130 137.95825 8988 ft 281 kts 111°
2026-05-08 01:15 34.55588 137.98105 8992 ft 281 kts 111°
2026-05-08 01:15 34.55045 138.00392 8990 ft 281 kts 111°
2026-05-08 01:15 34.54514 138.02670 8989 ft 282 kts 109°
2026-05-08 01:15 34.54321 138.05057 8989 ft 287 kts 93°
2026-05-08 01:16 34.54338 138.07480 8992 ft 288 kts 94°
2026-05-08 01:16 34.54321 138.09910 8993 ft 288 kts 94°
2026-05-08 01:16 34.54311 138.12306 8993 ft 288 kts 94°
2026-05-08 01:16 34.54309 138.14728 8994 ft 287 kts 94°
2026-05-08 01:17 34.54304 138.17151 8994 ft 287 kts 94°
2026-05-08 01:17 34.54298 138.19577 8994 ft 287 kts 94°
2026-05-08 01:17 34.54290 138.22007 8994 ft 288 kts 94°
2026-05-08 01:17 34.54284 138.24440 9000 ft 288 kts 94°
2026-05-08 01:18 34.54276 138.26867 9000 ft 288 kts 94°
2026-05-08 01:18 34.54269 138.29296 8999 ft 288 kts 94°
2026-05-08 01:18 34.54260 138.31724 9003 ft 288 kts 94°
2026-05-08 01:18 34.54251 138.34149 9003 ft 287 kts 94°
2026-05-08 01:19 34.54245 138.36568 9042 ft 286 kts 92°
2026-05-08 01:19 34.54548 138.38931 9040 ft 290 kts 75°
2026-05-08 01:19 34.55345 138.41181 9039 ft 290 kts 63°
2026-05-08 01:19 34.56266 138.43369 9040 ft 291 kts 63°
2026-05-08 01:20 34.57170 138.45569 9047 ft 292 kts 64°
2026-05-08 01:20 34.58082 138.47775 9048 ft 292 kts 63°
2026-05-08 01:20 34.58987 138.49956 9050 ft 292 kts 64°
2026-05-08 01:20 34.59899 138.52158 9051 ft 292 kts 64°
2026-05-08 01:21 34.60811 138.54362 9051 ft 292 kts 64°
2026-05-08 01:21 34.61723 138.56571 9051 ft 292 kts 63°
2026-05-08 01:21 34.62636 138.58781 9052 ft 292 kts 63°
2026-05-08 01:21 34.63549 138.60994 9052 ft 293 kts 63°
2026-05-08 01:22 34.64462 138.63206 9052 ft 293 kts 64°
2026-05-08 01:22 34.65363 138.65392 9054 ft 293 kts 64°
2026-05-08 01:22 34.66277 138.67609 9053 ft 294 kts 64°
2026-05-08 01:22 34.67192 138.69832 9052 ft 294 kts 64°
2026-05-08 01:23 34.68106 138.72055 9053 ft 294 kts 64°
2026-05-08 01:23 34.69023 138.74285 9058 ft 295 kts 64°
2026-05-08 01:23 34.69933 138.76531 9038 ft 297 kts 64°
2026-05-08 01:23 34.70850 138.78787 9044 ft 297 kts 65°
2026-05-08 01:24 34.71446 138.81172 9049 ft 294 kts 84°
2026-05-08 01:24 34.71547 138.83631 9051 ft 291 kts 95°
2026-05-08 01:24 34.71533 138.86094 9040 ft 291 kts 94°
2026-05-08 01:24 34.71538 138.88534 9048 ft 287 kts 94°
2026-05-08 01:25 34.71527 138.90907 9047 ft 284 kts 95°
2026-05-08 01:25 34.71539 138.93304 9044 ft 282 kts 95°
2026-05-08 01:25 34.71499 138.95681 9042 ft 282 kts 96°
2026-05-08 01:25 34.71469 138.98076 9046 ft 283 kts 95°
2026-05-08 01:26 34.71472 139.00482 9042 ft 285 kts 94°
2026-05-08 01:26 34.71483 139.02886 9038 ft 284 kts 94°
2026-05-08 01:26 34.71461 139.05292 9038 ft 285 kts 96°
2026-05-08 01:26 34.71438 139.07704 9037 ft 286 kts 95°
2026-05-08 01:27 34.71430 139.10125 9029 ft 287 kts 95°
2026-05-08 01:27 34.71421 139.12553 9028 ft 287 kts 95°
2026-05-08 01:27 34.71408 139.14979 9024 ft 287 kts 95°
2026-05-08 01:27 34.71391 139.17408 9021 ft 287 kts 95°
2026-05-08 01:28 34.71377 139.19826 9020 ft 286 kts 95°
2026-05-08 01:28 34.71362 139.22245 9017 ft 286 kts 95°
2026-05-08 01:28 34.71347 139.24663 9016 ft 286 kts 95°
2026-05-08 01:28 34.71330 139.27082 9013 ft 286 kts 95°
2026-05-08 01:29 34.71314 139.29505 9013 ft 286 kts 95°
2026-05-08 01:29 34.71297 139.31924 9012 ft 286 kts 95°
2026-05-08 01:29 34.71279 139.34346 9006 ft 286 kts 95°
2026-05-08 01:29 34.71450 139.36736 9005 ft 292 kts 80°
2026-05-08 01:30 34.72148 139.39062 9010 ft 295 kts 64°
2026-05-08 01:30 34.73291 139.41139 9010 ft 295 kts 46°
2026-05-08 01:30 34.74868 139.42704 9012 ft 291 kts 29°
2026-05-08 01:30 34.76687 139.43753 9016 ft 288 kts 14°
2026-05-08 01:31 34.78578 139.44552 9013 ft 287 kts 15°
2026-05-08 01:31 34.80452 139.45392 9013 ft 286 kts 15°
2026-05-08 01:31 34.82326 139.46210 9013 ft 285 kts 14°
2026-05-08 01:31 34.84197 139.47009 9013 ft 285 kts 14°
2026-05-08 01:32 34.86066 139.47817 9014 ft 285 kts 14°
2026-05-08 01:32 34.87929 139.48627 9015 ft 285 kts 14°
2026-05-08 01:32 34.89794 139.49435 9016 ft 285 kts 14°
2026-05-08 01:32 34.91660 139.50246 9017 ft 284 kts 14°
2026-05-08 01:33 34.93524 139.51054 9018 ft 284 kts 14°
2026-05-08 01:33 34.95386 139.51864 9019 ft 284 kts 14°
2026-05-08 01:33 34.97252 139.52673 9021 ft 284 kts 15°
2026-05-08 01:33 34.99112 139.53481 9025 ft 284 kts 15°
2026-05-08 01:34 35.00971 139.54293 9026 ft 284 kts 15°
2026-05-08 01:34 35.02804 139.55090 9027 ft 283 kts 15°
2026-05-08 01:34 35.04664 139.55899 9028 ft 283 kts 15°
2026-05-08 01:34 35.06522 139.56707 9029 ft 283 kts 15°
2026-05-08 01:35 35.08378 139.57517 9027 ft 283 kts 15°
2026-05-08 01:35 35.10239 139.58328 9028 ft 283 kts 15°
2026-05-08 01:35 35.12099 139.59140 9028 ft 283 kts 15°
2026-05-08 01:35 35.13955 139.59956 9030 ft 284 kts 15°
2026-05-08 01:36 35.15817 139.60766 9031 ft 284 kts 14°
2026-05-08 01:36 35.17685 139.61578 9027 ft 285 kts 15°
2026-05-08 01:36 35.19547 139.62420 9020 ft 286 kts 15°
2026-05-08 01:36 35.21377 139.63308 9025 ft 286 kts 18°
2026-05-08 01:37 35.23176 139.64349 9021 ft 287 kts 23°
2026-05-08 01:37 35.24944 139.65477 9020 ft 287 kts 22°
2026-05-08 01:37 35.26740 139.66542 8924 ft 289 kts 20°
2026-05-08 01:37 35.28603 139.67576 8567 ft 298 kts 20°
2026-05-08 01:38 35.30504 139.68671 8223 ft 303 kts 21°
2026-05-08 01:38 35.32391 139.69792 7884 ft 305 kts 21°
2026-05-08 01:38 35.34330 139.70923 7529 ft 305 kts 21°
2026-05-08 01:38 35.36248 139.72034 7192 ft 304 kts 21°
2026-05-08 01:39 35.38160 139.73146 6853 ft 303 kts 21°
2026-05-08 01:39 35.40036 139.74242 6526 ft 302 kts 21°
2026-05-08 01:39 35.41925 139.75339 6205 ft 299 kts 22°
2026-05-08 01:39 35.43796 139.76433 5855 ft 297 kts 22°
2026-05-08 01:40 35.45661 139.77525 5508 ft 295 kts 22°
2026-05-08 01:40 35.47507 139.78599 5165 ft 293 kts 23°
2026-05-08 01:40 35.49334 139.79668 4993 ft 285 kts 24°
2026-05-08 01:40 35.51085 139.80696 4990 ft 274 kts 24°
2026-05-08 01:41 35.52790 139.81685 4985 ft 268 kts 24°
2026-05-08 01:41 35.54462 139.82665 4980 ft 264 kts 24°
2026-05-08 01:41 35.56114 139.83633 4979 ft 262 kts 24°
2026-05-08 01:41 35.57202 139.84269 4980 ft 261 kts 24°
2026-05-08 01:42 35.58909 139.85269 4979 ft 260 kts 24°
2026-05-08 01:42 35.59614 139.85681 4979 ft 260 kts 24°
2026-05-08 01:42 35.60449 139.86171 4980 ft 260 kts 24°
2026-05-08 01:42 35.60837 139.86398 4979 ft 260 kts 24°
2026-05-08 01:43 35.63000 139.87666 4981 ft 260 kts 24°
2026-05-08 01:43 35.64081 139.88301 4980 ft 260 kts 24°
2026-05-08 01:43 35.65717 139.89261 4980 ft 260 kts 24°
2026-05-08 01:43 35.67350 139.90221 4979 ft 260 kts 24°
2026-05-08 01:44 35.68048 139.90630 4974 ft 260 kts 24°
2026-05-08 01:44 35.69120 139.91260 4981 ft 259 kts 24°
2026-05-08 01:44 35.69243 139.91332 4981 ft 259 kts 24°
2026-05-08 01:44 35.70873 139.92289 4982 ft 259 kts 24°
2026-05-08 01:45 35.72500 139.93246 4990 ft 259 kts 24°
2026-05-08 01:45 35.74130 139.94206 4990 ft 256 kts 24°
2026-05-08 01:45 35.75696 139.95129 4986 ft 244 kts 24°
2026-05-08 01:45 35.77221 139.95977 4986 ft 235 kts 15°
2026-05-08 01:46 35.78798 139.96019 5000 ft 225 kts 340°
2026-05-08 01:46 35.80056 139.95011 5001 ft 211 kts 304°
2026-05-08 01:46 35.80550 139.93451 4998 ft 180 kts 270°
2026-05-08 01:46 35.80268 139.92143 4998 ft 143 kts 236°
2026-05-08 01:47 35.79564 139.91504 4988 ft 117 kts 196°
2026-05-08 01:47 35.78772 139.91372 4991 ft 113 kts 200°
2026-05-08 01:47 35.78064 139.91113 4867 ft 103 kts 200°
2026-05-08 01:48 35.76516 139.90540 4369 ft 127 kts 200°
2026-05-08 01:48 35.75652 139.90201 4129 ft 132 kts 200°
2026-05-08 01:48 35.74776 139.89846 3884 ft 133 kts 200°
2026-05-08 01:48 35.73891 139.89497 3642 ft 134 kts 200°
2026-05-08 01:49 35.73002 139.89153 3405 ft 134 kts 200°
2026-05-08 01:49 35.72148 139.88821 3318 ft 126 kts 200°
2026-05-08 01:49 35.71340 139.88505 3278 ft 118 kts 200°
2026-05-08 01:49 35.70566 139.88211 3227 ft 115 kts 200°
2026-05-08 01:50 35.69795 139.87942 3146 ft 116 kts 189°
2026-05-08 01:50 35.68987 139.87771 2900 ft 126 kts 199°
2026-05-08 01:50 35.68159 139.87413 2720 ft 125 kts 213°
2026-05-08 01:50 35.67424 139.86847 2556 ft 128 kts 213°
2026-05-08 01:51 35.66635 139.86208 2380 ft 141 kts 215°
2026-05-08 01:51 35.65795 139.85510 2175 ft 151 kts 215°
2026-05-08 01:51 35.64895 139.84737 1970 ft 164 kts 216°
2026-05-08 01:51 35.63925 139.83903 1758 ft 180 kts 216°
2026-05-08 01:52 35.62877 139.82992 1512 ft 188 kts 216°
2026-05-08 01:52 35.61782 139.82048 1257 ft 196 kts 215°
2026-05-08 01:52 35.60611 139.81040 997 ft 201 kts 215°
2026-05-08 01:52 35.59705 139.80258 790 ft 132 kts 214°
2026-05-08 01:53 35.59006 139.79641 623 ft 114 kts 211°
2026-05-08 01:53 35.58392 139.79129 471 ft 102 kts 209°
2026-05-08 01:53 35.57815 139.78627 335 ft 94 kts 212°
2026-05-08 01:53 35.57338 139.78196 157 ft 75 kts 216°
2026-05-08 01:54 35.56928 139.77843 117 ft 74 kts 212°
2026-05-08 01:54 35.56537 139.77522 20 ft 38 kts 214°
2026-05-08 01:54 35.56468 139.77462 20 ft 21 kts 216°
2026-05-08 01:54 35.56369 139.77325 20 ft 21 kts 285°
2026-05-08 01:55 35.56441 139.77172 18 ft 12 kts 357°
2026-05-08 01:55 35.56505 139.77143 17 ft 12 kts 308°
2026-05-08 01:55 35.56540 139.77084 17 ft 0 kts 303°